Location: Chemnitz
(49.5500°N, 11.5830°E)
Time: 23:05:06
(UTC+02:00)

ISS - Visible Passes

Search period start: 18 October 2019 00:00
Search period end: 27 October 2019 23:00
Orbit: 411 x 421 km, 51.6° (Epoch: 19 October)

Date Brightness Start Highest point End Pass type
(mag) Time Alt. Az. Time Alt. Az. Time Alt. Az.
24 Oct -0.8 06:50:15 10° S 06:52:14 15° SE 06:54:14 10° ESE visible
26 Oct -2.0 06:48:26 10° SSW 06:51:26 31° SE 06:54:28 10° E visible
27 Oct -1.4 05:00:52 13° S 05:02:59 21° SE 05:05:35 10° E visible
